This is the latest recevied weather packets stored in our database for station/object ED3YAB-7. If no packets are shown the sender has not sent any weather packets the latest 10 day(s).
| Time | Temp. | Humidity | Pressure | Rain* | Wind** | Luminosity | Snow |
|---|---|---|---|---|---|---|---|
| 1778176090 | 20° C | 43% | 1016.9 hPa | - | - | - | - |
| 1778174890 | 18.89° C | 44% | 1016.9 hPa | - | - | - | - |
| 1778173689 | 20° C | 42% | 1016.7 hPa | - | - | - | - |
| 1778171289 | 20.56° C | 40% | 1016.5 hPa | - | - | - | - |
| 1778170951 | 20.56° C | 40% | 1016.5 hPa | - | - | - | - |
| 1778170951 | 20.56° C | 40% | 1016.5 hPa | - | - | - | - |
| 1778168554 | 20° C | 39% | 1016.6 hPa | - | - | - | - |
| 1778167354 | 21.11° C | 36% | 1016.4 hPa | - | - | - | - |
| 1778164954 | 21.67° C | 35% | 1016.7 hPa | - | - | - | - |
| 1778163744 | 31.11° C | 23% | 1016.8 hPa | - | - | - | - |
| 1778161354 | 35° C | 18% | 1017.1 hPa | - | - | - | - |
| 1778160161 | 36.67° C | 18% | 1017.3 hPa | - | - | - | - |
| 1778160154 | 36.67° C | 18% | 1017.3 hPa | - | - | - | - |
| 1778158954 | 31.67° C | 23% | 1017.4 hPa | - | - | - | - |
| 1778157761 | 25° C | 31% | 1017.6 hPa | - | - | - | - |
| 1778157754 | 25° C | 31% | 1017.6 hPa | - | - | - | - |
| 1778156563 | 25° C | 32% | 1017.5 hPa | - | - | - | - |
| 1778156554 | 25° C | 32% | 1017.5 hPa | - | - | - | - |
| 1778154162 | 23.33° C | 34% | 1017.7 hPa | - | - | - | - |
| 1778154154 | 23.33° C | 34% | 1017.7 hPa | - | - | - | - |
| 1778152950 | 22.22° C | 36% | 1018.1 hPa | - | - | - | - |
| 1778152943 | 22.22° C | 36% | 1018.1 hPa | - | - | - | - |
| 1778150543 | 21.11° C | 40% | 1018.5 hPa | - | - | - | - |
| 1778146956 | 20° C | 42% | 1018.9 hPa | - | - | - | - |
| 1778145766 | 19.44° C | 44% | 1019.1 hPa | - | - | - | - |
* Rain since midnight (hover to see other rain measurements)
** Current wind speed in m/s (hover to see current wind gust speed)